Location: Newark
(53.3469°N, 7.1606°E)
Time: 11:26:58
(UTC+00:00)

N. Korean satellite - Pass Details

Date: 17 November 2019
Orbit: 455 x 506 km, 97.2° (Epoch: 10 December)

Event Time Altitude Azimuth Distance (km) Brightness Sun altitude
Rises 05:22:19 0° 16° (NNE) 2,627 10.3 -14.2°
Reaches altitude 10° 05:24:27 10° 20° (NNE) 1,735 9.4 -13.9°
Maximum altitude 05:28:09 60° 101° (E) 583 7.2 -13.3°
Drops below altitude 10° 05:31:48 10° 182° (S) 1,706 9.5 -12.8°
Sets 05:33:53 0° 186° (S) 2,579 10.4 -12.5°
